Simultaneous Nadir Overpasses (SNOs) Predictions

Prediction of SNOs between LANDSAT-8 and METOP-A Satellite Orbit:

Table of predicted SNOs for the next 14.0 days since TLE Epoch: 8/18/2017
Index Date (LANDSAT-8) Time (LANDSAT-8) Lat,Lon (LANDSAT-8) SZA (LANDSAT-8 ) Date (METOP-A) Time (METOP-A) Lat,Lon (METOP-A) SZA (METOP-A ) Distance(km) Time Diff (sec)
1 08/21/2017 14:00:45 -81.24,-168.22 108.48 08/21/2017 14:00:33 -81.24,-168.06 108.46 2.75 12
2 08/21/2017 14:50:11 81.25, -0.50 71.55 08/21/2017 14:51:13 81.25, -0.63 71.57 2.21 62
3 08/24/2017 09:35:01 -81.24,-101.81 107.51 08/24/2017 09:34:54 -81.24,-101.91 107.53 1.72 7
4 08/24/2017 10:24:27 81.24, 65.88 72.51 08/24/2017 10:25:33 81.25, 65.89 72.55 0.40 66
5 08/27/2017 05:09:17 -81.24, -35.42 106.53 08/27/2017 05:09:14 -81.24, -35.38 106.52 0.72 3
6 08/27/2017 05:58:42 81.26, 132.62 73.55 08/27/2017 05:59:52 81.26, 132.78 73.60 2.78 70
7 08/29/2017 23:54:05 81.23,-136.73 74.46 08/29/2017 23:52:53 81.23,-136.74 74.43 0.57 72
8 08/30/2017 00:43:32 -81.23, 30.93 105.52 08/30/2017 00:43:34 -81.23, 30.74 105.54 3.28 2
9 08/30/2017 01:32:22 81.76,-146.95 76.46 08/30/2017 01:33:35 81.34,-146.51 76.33 47.65 73
10 09/01/2017 19:28:21 81.23, -70.42 75.48 09/01/2017 19:27:13 81.23, -70.26 75.47 2.81 68




NCC Satellite Simultaneous Nadir Overpasses (SNOs) Prediction Service
